CW5316 Weather Reports


Display with metric or nautical units.
time (UTC)temp
F
wind
direction
speed
MPH
gust
MPH
rain 1hr
in
rain 24hr
in
rain mn
in
humidity
%
barometer
mb
20260906030050 54 0 0.0 0.0 0.00 0.00 0.00 87 1017.6
20260906025524 55 0 0.0 0.0 0.00 0.00 0.00 87 1017.6
20260906025023 55 0 0.0 0.0 0.00 0.00 0.00 87 1017.6
20260906024609 55 0 0.0 0.0 0.00 0.00 0.00 86 1017.5
20260906024023 56 0 0.0 0.0 0.00 0.00 0.00 86 1017.5
20260906023523 56 0 0.0 0.0 0.00 0.00 0.00 85 1017.5
20260906023054 56 0 0.0 0.0 0.00 0.00 0.00 85 1017.5
20260906022522 56 0 0.0 0.0 0.00 0.00 0.00 85 1017.4
20260906022022 57 0 0.0 0.0 0.00 0.00 0.00 85 1017.3
20260906021546 57 0 0.0 0.0 0.00 0.00 0.00 85 1017.3
20260906021023 57 0 0.0 0.0 0.00 0.00 0.00 84 1017.3
20260906020523 57 0 0.0 0.0 0.00 0.00 0.00 85 1017.2
20260906020045 58 0 0.0 0.0 0.00 0.00 0.00 84 1017.2
20260906015523 58 0 0.0 0.0 0.00 0.00 0.00 83 1017.3
20260906015024 58 0 0.0 0.0 0.00 0.00 0.00 82 1017.3
20260906014553 58 0 0.0 0.0 0.00 0.00 0.00 81 1017.3
20260906014024 59 0 0.0 0.0 0.00 0.00 0.00 81 1017.3
20260906013529 59 0 0.0 0.0 0.00 0.00 0.00 79 1017.2
20260906013047 60 0 0.0 1.0 0.00 0.00 0.00 78 1017.1
20260906012523 61 0 0.0 1.0 0.00 0.00 0.00 77 1017.1
20260906012023 61 0 0.0 0.0 0.00 0.00 0.00 77 1017.1
20260906011556 61 0 0.0 0.0 0.00 0.00 0.00 76 1017.0
20260906011024 61 0 0.0 0.0 0.00 0.00 0.00 75 1017.0
20260906010524 62 0 0.0 0.0 0.00 0.00 0.00 74 1017.0
20260906010101 62 0 0.0 0.0 0.00 0.00 0.00 74 1017.0
20260906005523 62 0 0.0 0.0 0.00 0.01 0.00 72 1017.0
20260906005022 63 0 0.0 0.0 0.00 0.01 0.00 72 1016.9
20260906004548 63 0 0.0 2.0 0.00 0.01 0.00 71 1016.8
20260906004026 63 0 0.0 2.0 0.00 0.01 0.00 72 1016.9
20260906003525 64 0 0.0 2.0 0.00 0.01 0.00 69 1016.8
20260906003047 64 0 0.0 1.0 0.00 0.01 0.00 68 1016.7
20260906002523 64 0 0.0 1.0 0.00 0.01 0.00 70 1016.8
20260906002023 64 0 0.0 1.0 0.00 0.01 0.00 70 1016.7
20260906001600 64 0 0.0 1.0 0.00 0.01 0.00 71 1016.7
20260906001027 63 0 0.0 1.0 0.00 0.01 0.00 70 1016.7
20260906000524 64 0 0.0 1.0 0.00 0.01 0.00 70 1016.7
20260906000053 64 0 0.0 2.0 0.00 0.01 0.00 70 1016.7
20260905235522 64 0 0.0 6.0 0.00 0.01 0.00 68 1016.7
20260905235025 65 0 0.0 6.0 0.00 0.01 0.00 67 1016.6
20260905234548 65 244 1.0 6.0 0.00 0.01 0.00 67 1016.7
20260905234025 65 248 0.0 4.0 0.00 0.01 0.00 66 1016.5
20260905233524 66 269 0.0 4.0 0.00 0.01 0.00 66 1016.5
20260905233045 66 0 0.0 2.0 0.00 0.01 0.00 65 1016.5
20260905232527 66 275 0.0 2.0 0.00 0.01 0.00 65 1016.6
20260905232025 65 0 0.0 2.0 0.00 0.01 0.00 67 1016.5
20260905231555 65 0 0.0 4.0 0.00 0.01 0.00 68 1016.6
20260905231025 65 0 0.0 4.0 0.00 0.01 0.00 65 1016.7
20260905230523 66 329 0.0 2.0 0.00 0.01 0.00 67 1016.9
20260905230103 66 0 0.0 3.0 0.00 0.01 0.00 68 1016.9
20260905225522 66 0 0.0 3.0 0.00 0.01 0.00 68 1016.9
20260905225022 65 236 1.0 3.0 0.00 0.01 0.00 67 1017.0
20260905224550 64 0 0.0 0.0 0.00 0.01 0.00 69 1017.1
20260905224024 64 0 0.0 0.0 0.00 0.01 0.00 68 1017.1
20260905223523 64 0 0.0 1.0 0.00 0.01 0.00 71 1017.1
20260905223047 64 0 0.0 1.0 0.00 0.01 0.00 71 1017.1
20260905222523 64 0 0.0 1.0 0.00 0.01 0.00 71 1017.2
20260905222025 65 0 0.0 1.0 0.00 0.01 0.00 70 1017.2
20260905221549 65 0 0.0 1.0 0.00 0.01 0.00 71 1017.3
20260905221024 64 0 0.0 1.0 0.00 0.01 0.00 69 1017.4
20260905220522 63 0 0.0 2.0 0.00 0.01 0.00 71 1017.4
20260905220048 63 0 0.0 2.0 0.00 0.01 0.00 73 1017.4
20260905215523 63 0 0.0 1.0 0.00 0.01 0.00 71 1017.5
20260905215022 63 0 0.0 3.0 0.00 0.01 0.00 68 1017.5
20260905214544 63 0 0.0 3.0 0.00 0.01 0.00 71 1017.6
20260905214021 62 114 1.0 4.0 0.00 0.01 0.00 71 1017.6
20260905213523 62 0 0.0 4.0 0.00 0.01 0.00 70 1017.6
20260905213052 63 104 0.0 3.0 0.00 0.01 0.00 69 1017.7
20260905212525 63 0 0.0 4.0 0.00 0.01 0.00 71 1017.6
20260905212022 62 0 0.0 4.0 0.00 0.01 0.00 74 1017.7
20260905211548 62 117 1.0 4.0 0.00 0.01 0.00 70 1017.7
20260905211023 62 0 0.0 6.0 0.00 0.01 0.00 70 1017.7
20260905210523 61 0 1.0 6.0 0.00 0.01 0.00 71 1017.7
20260905210045 61 88 0.0 6.0 0.00 0.01 0.00 71 1017.8
20260905205525 61 0 2.0 6.0 0.00 0.01 0.00 69 1017.8
20260905205023 62 99 1.0 4.0 0.00 0.01 0.00 70 1017.7
20260905204544 62 0 0.0 2.0 0.00 0.01 0.00 70 1017.8
20260905204026 62 0 0.0 2.0 0.00 0.01 0.00 73 1017.7
20260905203524 62 0 0.0 2.0 0.00 0.01 0.00 73 1017.8
20260905203052 61 0 0.0 3.0 0.00 0.01 0.00 72 1017.8
20260905202526 62 0 0.0 6.0 0.00 0.01 0.00 71 1017.8
20260905202024 61 0 0.0 6.0 0.00 0.01 0.00 70 1017.8
20260905201557 61 103 0.0 3.0 0.00 0.01 0.00 72 1017.8
20260905201024 61 134 0.0 4.0 0.00 0.01 0.00 72 1017.8
20260905200520 62 109 1.0 6.0 0.00 0.01 0.00 69 1017.7
20260905200046 62 0 0.0 7.0 0.00 0.01 0.00 71 1017.7
20260905195531 61 0 1.0 7.0 0.00 0.01 0.00 71 1017.7
20260905195026 62 111 1.0 6.0 0.00 0.01 0.00 70 1017.7
20260905194544 61 46 1.0 6.0 0.00 0.01 0.00 73 1017.7
20260905194024 61 0 1.0 6.0 0.00 0.01 0.00 71 1017.8
20260905193523 61 241 1.0 5.0 0.00 0.01 0.00 72 1017.9
20260905193047 61 0 1.0 8.0 0.00 0.01 0.00 71 1018.0
20260905192526 61 130 1.0 8.0 0.00 0.01 0.00 72 1017.9
20260905192025 61 98 2.0 7.0 0.00 0.01 0.00 73 1018.0
20260905191546 61 0 1.0 6.0 0.00 0.01 0.00 72 1018.0
20260905191024 61 84 0.0 4.0 0.00 0.01 0.00 72 1017.9
20260905190525 61 0 0.0 4.0 0.00 0.01 0.00 73 1018.0
20260905190045 60 197 1.0 4.0 0.00 0.01 0.00 75 1018.1
20260905185524 59 0 1.0 4.0 0.00 0.01 0.00 75 1018.2
20260905185022 59 0 0.0 3.0 0.00 0.01 0.00 74 1018.3
20260905184549 59 0 0.0 6.0 0.00 0.01 0.00 76 1018.2
20260905184023 59 105 1.0 6.0 0.00 0.01 0.00 75 1018.2
20260905183523 59 0 0.0 4.0 0.00 0.01 0.00 79 1018.3
20260905183108 59 96 0.0 4.0 0.00 0.01 0.00 80 1018.3
20260905182524 59 0 1.0 4.0 0.00 0.01 0.00 77 1018.4
20260905182027 58 0 0.0 3.0 0.00 0.01 0.00 80 1018.3
20260905181547 58 73 0.0 2.0 0.00 0.01 0.00 81 1018.3
20260905181022 57 0 0.0 0.0 0.00 0.01 0.00 83 1018.5
20260905180526 57 0 0.0 3.0 0.00 0.01 0.00 83 1018.4
20260905180050 56 0 0.0 3.0 0.00 0.01 0.00 82 1018.3
20260905175526 57 0 0.0 3.0 0.00 0.01 0.00 82 1018.3
20260905175024 56 0 0.0 1.0 0.00 0.01 0.00 81 1018.3
20260905174549 56 0 0.0 4.0 0.00 0.01 0.00 82 1018.3
20260905174024 56 0 0.0 6.0 0.00 0.01 0.00 82 1018.2
20260905173526 55 111 1.0 6.0 0.00 0.01 0.00 82 1018.3
20260905173046 56 0 0.0 4.0 0.00 0.01 0.00 82 1018.3
20260905172525 56 0 0.0 4.0 0.00 0.01 0.00 82 1018.2
20260905172023 55 0 0.0 2.0 0.00 0.01 0.00 84 1018.1
20260905171550 55 0 0.0 3.0 0.00 0.01 0.00 83 1018.1
20260905171023 54 0 0.0 3.0 0.00 0.01 0.00 85 1018.1
20260905170526 54 117 0.0 4.0 0.00 0.01 0.00 85 1018.2
20260905170057 54 0 0.0 4.0 0.00 0.01 0.00 86 1018.2
20260905165524 54 0 1.0 5.0 0.00 0.01 0.00 85 1018.2
20260905165024 54 0 0.0 5.0 0.00 0.01 0.00 84 1018.2
20260905164602 54 113 0.0 5.0 0.00 0.01 0.00 84 1018.2
20260905164023 54 105 0.0 5.0 0.00 0.01 0.00 86 1018.3
20260905163528 54 99 0.0 4.0 0.00 0.01 0.00 85 1018.3
20260905163051 53 109 0.0 4.0 0.00 0.01 0.00 85 1018.2
20260905162524 53 108 0.0 4.0 0.00 0.01 0.00 86 1018.2
20260905162023 52 0 0.0 3.0 0.00 0.01 0.00 87 1018.2
20260905161546 52 0 0.0 6.0 0.00 0.01 0.00 88 1018.1
20260905161028 51 0 1.0 6.0 0.00 0.01 0.00 88 1018.2
20260905160528 51 0 0.0 4.0 0.00 0.01 0.00 89 1018.1
20260905160044 51 0 0.0 4.0 0.00 0.01 0.00 89 1018.2
20260905155529 51 107 0.0 4.0 0.00 0.01 0.00 88 1018.2
20260905155022 51 0 1.0 4.0 0.00 0.01 0.00 88 1018.3
20260905154550 51 0 0.0 3.0 0.00 0.01 0.00 88 1018.2
20260905154026 50 0 0.0 5.0 0.00 0.01 0.00 90 1018.2
20260905153523 50 0 0.0 5.0 0.00 0.01 0.00 91 1018.3
20260905153050 49 187 0.0 4.0 0.00 0.01 0.00 92 1018.3
20260905152523 49 116 1.0 4.0 0.00 0.01 0.00 93 1018.1
20260905152023 49 0 0.0 3.0 0.00 0.01 0.00 93 1018.1
20260905151549 48 106 0.0 3.0 0.00 0.01 0.00 94 1018.0
20260905151025 48 0 0.0 2.0 0.00 0.01 0.00 94 1018.0
20260905150522 48 0 0.0 2.0 0.00 0.01 0.00 95 1017.9
20260905150050 48 0 0.0 0.0 0.00 0.01 0.00 95 1017.9
20260905145523 48 0 0.0 0.0 0.00 0.01 0.00 95 1017.9
20260905145023 47 0 0.0 0.0 0.00 0.01 0.00 95 1017.9
20260905144551 47 0 0.0 0.0 0.00 0.01 0.00 95 1017.8
20260905144025 47 0 0.0 0.0 0.00 0.01 0.00 95 1017.8
20260905143527 47 0 0.0 0.0 0.00 0.01 0.00 95 1017.7
20260905143051 47 0 0.0 0.0 0.00 0.01 0.00 95 1017.7
20260905142523 47 0 0.0 0.0 0.00 0.01 0.00 95 1017.6
20260905142022 47 0 0.0 0.0 0.00 0.01 0.00 95 1017.6
20260905141545 47 0 0.0 0.0 0.00 0.01 0.00 94 1017.6
20260905141022 47 0 0.0 0.0 0.00 0.01 0.00 94 1017.6
20260905140524 47 0 0.0 0.0 0.00 0.01 0.00 94 1017.6
20260905140048 47 0 0.0 0.0 0.00 0.01 0.00 94 1017.6
20260905135524 47 0 0.0 0.0 0.00 0.01 0.00 94 1017.5
20260905135024 47 0 0.0 0.0 0.00 0.01 0.00 94 1017.5
20260905134558 47 0 0.0 0.0 0.00 0.01 0.00 94 1017.5
20260905134023 47 0 0.0 0.0 0.00 0.01 0.00 94 1017.3
20260905133523 47 0 0.0 0.0 0.00 0.01 0.00 94 1017.4
20260905133047 47 0 0.0 0.0 0.00 0.01 0.00 94 1017.4
20260905132525 47 0 0.0 0.0 0.00 0.01 0.00 94 1017.3
20260905132024 47 0 0.0 0.0 0.00 0.01 0.00 94 1017.3
20260905131545 47 0 0.0 0.0 0.00 0.01 0.00 94 1017.4
20260905131026 47 0 0.0 0.0 0.00 0.01 0.00 93 1017.4
20260905130523 47 0 0.0 0.0 0.00 0.01 0.00 93 1017.3
20260905130046 48 0 0.0 0.0 0.00 0.01 0.00 92 1017.4
20260905125521 48 0 0.0 0.0 0.00 0.01 0.00 92 1017.4
20260905125025 49 0 0.0 1.0 0.00 0.01 0.00 91 1017.3
20260905124547 49 0 0.0 2.0 0.00 0.01 0.00 90 1017.3
20260905124024 49 0 0.0 2.0 0.00 0.01 0.00 90 1017.3
20260905123523 49 0 0.0 1.0 0.00 0.01 0.00 90 1017.3
20260905123052 49 0 0.0 0.0 0.00 0.01 0.00 90 1017.2
20260905122524 49 0 0.0 0.0 0.00 0.01 0.00 91 1017.3
20260905122023 49 0 0.0 2.0 0.00 0.01 0.00 90 1017.2
20260905121548 49 0 0.0 2.0 0.00 0.01 0.00 90 1017.3
20260905121030 49 0 0.0 2.0 0.00 0.01 0.00 91 1017.3
20260905120523 49 0 0.0 1.0 0.00 0.01 0.00 90 1017.3
20260905120045 49 0 0.0 1.0 0.00 0.01 0.00 91 1017.4
20260905115525 49 0 0.0 1.0 0.00 0.01 0.00 91 1017.4
20260905115023 49 0 0.0 0.0 0.00 0.01 0.00 91 1017.4
20260905114546 49 0 0.0 0.0 0.00 0.01 0.00 91 1017.4
20260905114023 49 0 0.0 1.0 0.00 0.01 0.00 90 1017.4
20260905113524 49 0 0.0 2.0 0.00 0.01 0.00 90 1017.5
20260905113053 49 0 0.0 2.0 0.00 0.01 0.00 91 1017.4
20260905112525 49 0 0.0 2.0 0.00 0.01 0.00 91 1017.4
20260905112022 49 0 0.0 0.0 0.00 0.01 0.00 91 1017.4
20260905111552 49 0 0.0 0.0 0.00 0.01 0.00 91 1017.4
20260905111025 49 0 0.0 1.0 0.00 0.01 0.00 91 1017.3
20260905110522 49 0 0.0 1.0 0.00 0.01 0.00 91 1017.4
20260905110048 49 0 0.0 1.0 0.00 0.01 0.00 91 1017.4
20260905105522 49 0 0.0 1.0 0.00 0.01 0.00 91 1017.4
20260905105024 49 0 0.0 1.0 0.00 0.01 0.00 91 1017.4
20260905104601 49 0 0.0 1.0 0.00 0.01 0.00 91 1017.4
20260905104023 49 0 0.0 2.0 0.00 0.01 0.00 90 1017.4
20260905103524 50 0 0.0 2.0 0.00 0.01 0.00 90 1017.3
20260905103039 50 0 0.0 2.0 0.00 0.01 0.00 90 1017.3
20260905102524 49 200 0.0 2.0 0.00 0.01 0.00 90 1017.3
20260905102024 49 0 0.0 3.0 0.00 0.01 0.00 90 1017.2
20260905101547 49 0 0.0 3.0 0.00 0.01 0.00 91 1017.3
20260905101022 49 0 0.0 3.0 0.00 0.01 0.00 91 1017.2
20260905100523 49 0 0.0 3.0 0.00 0.01 0.00 91 1017.2
20260905100046 49 0 0.0 3.0 0.00 0.01 0.00 91 1017.1
20260905095522 49 0 0.0 2.0 0.00 0.01 0.00 91 1017.2
20260905095028 49 0 0.0 1.0 0.00 0.01 0.00 91 1017.2
20260905094544 49 0 0.0 3.0 0.00 0.01 0.00 91 1017.2
20260905094027 49 0 0.0 3.0 0.00 0.01 0.00 91 1017.2
20260905093523 49 0 0.0 3.0 0.00 0.01 0.00 91 1017.1
20260905093052 49 0 0.0 3.0 0.00 0.01 0.00 92 1017.1
20260905092522 49 0 0.0 0.0 0.00 0.01 0.00 91 1017.1
20260905092027 49 0 0.0 1.0 0.00 0.01 0.00 92 1017.2
20260905091545 49 0 0.0 1.0 0.00 0.01 0.00 91 1017.1
20260905091022 49 0 0.0 1.0 0.00 0.01 0.00 91 1017.0
20260905090524 50 0 0.0 1.0 0.00 0.01 0.00 91 1017.1
20260905090112 50 0 0.0 2.0 0.00 0.01 0.00 91 1017.0
20260905085524 50 0 0.0 3.0 0.00 0.01 0.00 91 1017.1
20260905085024 50 0 0.0 3.0 0.00 0.01 0.00 91 1017.0
20260905084544 50 0 0.0 3.0 0.00 0.01 0.00 91 1017.0
20260905084022 50 0 0.0 1.0 0.00 0.01 0.00 91 1017.0
20260905083525 50 0 0.0 2.0 0.00 0.01 0.00 92 1017.0
20260905083053 50 0 0.0 2.0 0.00 0.01 0.00 91 1016.8
20260905082528 50 0 0.0 1.0 0.00 0.01 0.00 92 1016.9
20260905082024 50 0 0.0 0.0 0.00 0.01 0.00 91 1016.9
20260905081546 50 0 0.0 2.0 0.00 0.01 0.00 91 1016.9
20260905081024 51 0 0.0 3.0 0.00 0.01 0.00 90 1016.9
20260905080523 51 0 0.0 3.0 0.00 0.01 0.00 90 1016.9
20260905080047 51 0 0.0 2.0 0.00 0.01 0.00 90 1016.8
20260905075523 51 0 0.0 2.0 0.00 0.01 0.00 90 1016.9
20260905075023 51 0 0.0 2.0 0.00 0.01 0.00 90 1016.9
20260905074547 51 0 0.0 1.0 0.00 0.01 0.00 90 1016.9
20260905074023 51 0 0.0 1.0 0.00 0.01 0.00 91 1016.8
20260905073528 51 0 0.0 2.0 0.00 0.01 0.00 91 1016.8
20260905073052 51 0 0.0 2.0 0.00 0.01 0.00 90 1016.8
20260905072525 51 0 0.0 1.0 0.00 0.01 0.00 90 1017.0
20260905072026 51 0 0.0 1.0 0.00 0.01 0.00 90 1016.9
20260905071547 51 0 0.0 4.0 0.00 0.01 0.00 90 1016.8
20260905071024 51 0 0.0 4.0 0.00 0.01 0.00 89 1016.7
20260905070523 51 0 0.0 4.0 0.00 0.01 0.00 90 1016.7
20260905070049 51 0 0.0 1.0 0.00 0.01 0.00 89 1016.6
20260905065523 51 0 0.0 2.0 0.00 0.01 0.01 89 1016.6
20260905065024 51 0 0.0 2.0 0.00 0.01 0.01 89 1016.6
20260905064546 51 192 0.0 2.0 0.00 0.01 0.01 89 1016.5
20260905064025 52 0 0.0 4.0 0.00 0.01 0.01 89 1016.5
20260905063524 52 0 0.0 4.0 0.00 0.01 0.01 89 1016.5
20260905063043 52 0 0.0 4.0 0.00 0.01 0.01 88 1016.5
20260905062524 51 0 1.0 4.0 0.00 0.01 0.01 90 1016.6
20260905062022 51 0 0.0 2.0 0.00 0.01 0.01 91 1016.6
20260905061554 51 0 0.0 1.0 0.00 0.01 0.01 92 1016.5
20260905061023 51 0 0.0 0.0 0.00 0.01 0.01 92 1016.5
20260905060524 51 0 0.0 0.0 0.00 0.01 0.01 92 1016.5
20260905060055 51 0 0.0 1.0 0.00 0.01 0.01 91 1016.6
20260905055527 51 0 0.0 2.0 0.00 0.03 0.01 91 1016.6
20260905055026 51 0 0.0 2.0 0.00 0.03 0.01 91 1016.5
20260905054545 51 0 0.0 2.0 0.00 0.03 0.01 91 1016.6
20260905054022 51 0 0.0 2.0 0.00 0.03 0.01 92 1016.6
20260905053524 51 0 0.0 0.0 0.00 0.03 0.01 92 1016.6
20260905053046 51 0 0.0 0.0 0.00 0.03 0.01 92 1016.5
20260905052523 51 0 0.0 0.0 0.00 0.03 0.01 93 1016.5
20260905052024 51 0 0.0 0.0 0.00 0.03 0.01 93 1016.6
20260905051540 51 0 0.0 0.0 0.00 0.03 0.01 93 1016.6
20260905051023 51 0 0.0 0.0 0.00 0.03 0.01 92 1016.6
20260905050524 51 0 0.0 0.0 0.00 0.03 0.01 93 1016.7
20260905050051 51 0 0.0 1.0 0.00 0.03 0.01 93 1016.7
20260905045527 51 0 0.0 3.0 0.00 0.07 0.01 93 1016.8
20260905045026 51 0 0.0 3.0 0.00 0.07 0.01 93 1016.8
20260905044549 51 281 0.0 0.0 0.00 0.07 0.01 93 1016.7
20260905044022 51 0 0.0 0.0 0.00 0.07 0.01 93 1016.8
20260905043522 51 0 0.0 0.0 0.00 0.07 0.01 93 1016.8
20260905043045 51 0 0.0 0.0 0.00 0.07 0.01 92 1016.8
20260905042522 51 0 0.0 0.0 0.00 0.07 0.01 92 1016.8
20260905042024 51 0 0.0 0.0 0.00 0.07 0.01 92 1016.8
20260905041550 51 0 0.0 0.0 0.00 0.07 0.01 92 1016.7
20260905041026 51 0 0.0 0.0 0.00 0.07 0.01 92 1016.7
20260905040524 51 0 0.0 0.0 0.00 0.07 0.01 92 1016.7
20260905040046 52 0 0.0 0.0 0.00 0.07 0.01 92 1016.7
20260905035525 52 0 0.0 0.0 0.00 0.07 0.01 92 1016.7
20260905035023 52 0 0.0 0.0 0.00 0.07 0.01 92 1016.6
20260905034549 52 0 0.0 0.0 0.00 0.07 0.01 92 1016.6
20260905034023 52 0 0.0 0.0 0.00 0.07 0.01 92 1016.5
20260905033524 52 0 0.0 0.0 0.00 0.07 0.01 92 1016.4
20260905033051 52 0 0.0 0.0 0.00 0.07 0.01 92 1016.4
20260905032522 52 0 0.0 0.0 0.00 0.07 0.01 92 1016.3
20260905032022 52 0 0.0 0.0 0.00 0.07 0.01 91 1016.2
20260905031546 52 0 0.0 0.0 0.00 0.07 0.01 91 1016.2
20260905031024 53 0 0.0 0.0 0.00 0.07 0.01 91 1016.1
20260905030525 53 0 0.0 0.0 0.00 0.07 0.01 90 1016.0